Location: Navalespino
(40.5894°N, 4.2660°W)
Time: 12:40:49
(UTC+00:00)

Cosmos 2297 Rocket - Pass Details

Date: 18 April 2024
Orbit: 840 x 841 km, 71.0° (Epoch: 23 May)

Event Time Altitude Azimuth Distance (km) Brightness Sun altitude
Rises 20:30:59 0° 344° (NNW) 3,403 6.1 -16.6°
Reaches altitude 10° 20:33:40 10° 353° (N) 2,465 5.1 -17.1°
Maximum altitude 20:38:47 34° 58° (ENE) 1,356 3.0 -17.9°
Enters shadow 20:40:41 27° 95° (E) 1,556 3.1 -18.2°
